Change the Weather History Date:

Sunday, October 7, 2012

  Actual Average Record
Temperature  
Mean Temperature 42 °F -  
Max Temperature 51 °F 69 °F 84 °F (2007)
Min Temperature 33 °F 49 °F 33 °F (2012)
Degree Days  
Heating Degree Days 23    
Moisture  
Dew Point 34 °F    
Average Humidity 71    
Maximum Humidity 97    
Minimum Humidity 44    
Precipitation  
Precipitation 0.00 in - - ()
Sea Level Pressure  
Sea Level Pressure 30.28 in    
Wind  
Wind Speed 2 mph (NW)    
Max Wind Speed 7 mph    
Max Gust Speed -    
Visibility 10 miles    
Events      
Averages and records for this station are not official NWS values.
T = Trace of Precipitation, MM = Missing Value Source: NWS Daily Summary

Daily Weather History Graph

Daily Weather History Graph

Search for Another Location

Airport or City:

Trip Planner

Search our weather history database for the weather conditions in past years. The results will help you decide how hot, cold, wet, or windy it might be!

Date:

Astronomy

Oct. 07, 2012 Rise Set
Actual Time 7:17 AM CDT 6:50 PM CDT
Civil Twilight 6:51 AM CDT 7:16 PM CDT
Nautical Twilight 6:21 AM CDT 7:46 PM CDT
Astronomical Twilight 5:51 AM CDT 8:15 PM CDT
Moon No Moon Rise 1:47 PM CDT (10/7)
Length of Visible Light 12h 25m
Length of Day
11h 33m
Waning Gibbous, 56% of the Moon is Illuminated
Oct 7
Waning Gibbous
Oct 8
Last Quarter
Oct 15
New
Oct 21
First Quarter
Oct 29
Full

Hourly Weather History & Observations

Time (CDT) Temp. Windchill Dew Point Humidity Pressure Visibility Wind Dir Wind Speed Gust Speed Precip Events Conditions
12:57 AM 37.9 °F - 36.0 °F 93% 30.31 in 10.0 mi Calm Calm - N/A   Scattered Clouds
1:57 AM 37.0 °F - 36.0 °F 96% 30.32 in 10.0 mi Calm Calm - N/A   Overcast
2:57 AM 37.9 °F 34.4 °F 37.0 °F 97% 30.33 in 10.0 mi NNW 4.6 mph - N/A   Overcast
3:57 AM 39.0 °F 36.8 °F 35.1 °F 86% 30.32 in 10.0 mi North 3.5 mph - N/A   Overcast
4:57 AM 37.9 °F - 34.0 °F 86% 30.32 in 10.0 mi Calm Calm - N/A   Mostly Cloudy
5:57 AM 35.1 °F 32.2 °F 33.1 °F 92% 30.30 in 10.0 mi NNE 3.5 mph - N/A   Clear
6:57 AM 33.1 °F - 32.0 °F 96% 30.32 in 9.0 mi Calm Calm - N/A   Clear
7:57 AM 34.0 °F - 32.0 °F 92% 30.33 in 8.0 mi Calm Calm - N/A   Clear
8:57 AM 37.9 °F 35.5 °F 36.0 °F 93% 30.33 in 10.0 mi North 3.5 mph - N/A   Clear
9:57 AM 44.1 °F 40.1 °F 32.0 °F 63% 30.33 in 10.0 mi North 6.9 mph - N/A   Clear
10:57 AM 46.9 °F - 32.0 °F 56% 30.33 in 10.0 mi North 6.9 mph - N/A   Clear
11:57 AM 48.0 °F - 30.0 °F 50% 30.31 in 10.0 mi West 4.6 mph - N/A   Clear
12:57 PM 50.0 °F - 28.9 °F 44% 30.30 in 10.0 mi Calm Calm - N/A   Clear
1:57 PM 51.1 °F - 30.9 °F 46% 30.27 in 10.0 mi NNW 5.8 mph - N/A   Clear
2:57 PM 50.0 °F - 28.9 °F 44% 30.25 in 10.0 mi West 4.6 mph - N/A   Clear
3:57 PM 50.0 °F - 30.9 °F 48% 30.23 in 10.0 mi NNW 4.6 mph - N/A   Clear
4:57 PM 51.1 °F - 30.9 °F 46% 30.22 in 10.0 mi North 3.5 mph - N/A   Clear
5:57 PM 48.9 °F - 34.0 °F 56% 30.22 in 10.0 mi WNW 3.5 mph - N/A   Partly Cloudy
6:57 PM 48.0 °F - 36.0 °F 63% 30.23 in 10.0 mi Calm Calm - N/A   Overcast
7:57 PM 46.9 °F - 33.1 °F 59% 30.22 in 10.0 mi Calm Calm - N/A   Overcast
8:57 PM 46.0 °F - 36.0 °F 68% 30.24 in 10.0 mi Calm Calm - N/A   Scattered Clouds
9:57 PM 45.0 °F 42.6 °F 37.9 °F 76% 30.24 in 10.0 mi West 4.6 mph - N/A   Partly Cloudy
10:57 PM 45.0 °F 41.8 °F 36.0 °F 71% 30.25 in 10.0 mi SW 5.8 mph - N/A   Mostly Cloudy
11:57 PM 42.1 °F 38.4 °F 36.0 °F 79% 30.24 in 10.0 mi SW 5.8 mph - N/A   Mostly Cloudy